Torna al catalogo

KUIPER-00115

AttivoComunicazioniLEO
NORAD 65152·PAYLOAD·🇺🇸 United States

Lanciato Aug 11, 2025 da Cape Canaveral Space Force Station

Loading…

Prossimi Passaggi (prossime 24 ore)

TLE

AggiornatoSource: CelesTrak SupGP

Epoca: Sep 14, 2026, 22:16 UTC

1 65152C 25171W   26257.92799769  .00005580  00000+0  73066-3 0  2574
2 65152  51.9007  51.2874 0000632 108.4123 119.7016 14.79915305    10

Traccia KUIPER-00115 in tempo reale con AllMySat

Download on the App Store